Location: *
(40.7873°S, 98.7174°E)
Time: 00:26:57
(UTC+00:00)

Daily predictions for brighter satellites

Satellite Brightness Start Highest point End
(mag) Time Altitude Azimuth Time Altitude Azimuth Time Altitude Azimuth
DMSP B5D2-2 4.1 00:00:55 10° S 00:06:13 79° WSW 00:11:26 10° NNW
Cosmos 1842 Rocket 4.5 10:36:39 10° SSE 10:40:33 28° ESE 10:44:22 10° NE
Cosmos 1697 Rocket 3.6 10:36:22 10° S 10:41:06 26° SE 10:45:48 10° ENE
Cosmos 1741 Rocket 4.1 10:39:10 10° SSW 10:44:34 89° E 10:49:51 10° NNE
Cosmos 1825 Rocket 4.2 10:42:31 10° NNW 10:46:50 59° W 10:51:15 10° S
Cosmos 1606 3.1 10:43:28 10° SSW 10:47:25 70° W 10:51:17 10° N
ATLAS 2AS CENTAUR R/B 3.2 10:47:00 10° SSW 10:53:44 45° SE 11:00:50 10° ENE
COSMOS 2406 4.0 10:49:24 10° NNE 10:54:19 31° ENE 10:59:16 10° SE
Cosmos 2221 2.6 10:56:41 10° S 11:01:06 60° E 11:05:27 10° NNE
NOSS 3-4 (A) 4.3 10:54:32 10° SW 11:01:19 59° WNW 11:07:15 10° NNE
NOSS 3-4 (C) 4.3 10:54:33 10° SW 11:01:21 60° WNW 11:07:20 10° NNE
Cosmos 1153 Rocket 4.4 10:59:34 10° S 11:05:52 74° E 11:12:01 10° NNE
CZ-2C R/B 3.8 11:02:26 10° S 11:07:06 50° WSW 11:11:49 10° NNW
Meteor 2-3 Rocket 3.9 11:03:43 10° NNE 11:09:06 50° E 11:14:36 10° SSE
CBERS 1 LM4 rocket 4.4 11:06:01 10° SSE 11:10:51 89° E 11:15:44 10° NNW
Cosmos 1302 Rocket 4.0 11:09:40 10° NNW 11:14:53 78° ENE 11:20:11 10° SSE
CZ-2D R/B 4.1 11:16:10 15° SE 11:18:48 30° E 11:22:11 10° NNE
Cosmos 192 4.3 11:15:49 10° NNW 11:20:45 84° ENE 11:25:46 10° SSE
Cosmos 1833 Rocket 2.7 11:21:19 10° NNW 11:26:59 85° WSW 11:32:43 10° SSE
USA 281 3.3 11:21:57 10° SSE 11:28:32 58° ENE 11:35:01 10° N
OAO 2 Rocket 4.2 11:23:40 10° WNW 11:28:46 45° N 11:32:49 16° ENE
Cosmos 1340 Rocket 3.0 11:24:50 10° NNW 11:28:50 73° W 11:32:56 10° S
USA 215 3.2 11:23:15 10° NE 11:29:51 85° SE 11:36:31 10° SW
Meteor 1-26 Rocket 4.5 11:23:52 10° S 11:29:53 56° ESE 11:35:46 10° NNE
Aureole 1 Rocket 4.4 11:27:46 10° S 11:34:53 42° ESE 11:40:31 10° NE
Cosmos 1992 Rocket 4.1 11:32:07 10° N 11:37:12 53° ENE 11:40:59 18° SSE
Cosmos 1812 3.2 11:33:56 10° S 11:37:35 36° ESE 11:41:09 10° NE
NOAA 12 4.5 11:36:15 10° S 11:41:35 66° WSW 11:46:49 10° NNW
Cosmos 2173 Rocket 4.0 11:36:21 10° S 11:42:48 84° E 11:49:06 10° N
GPS 2-04 Rocket1 3.6 11:40:25 10° WNW 11:43:51 35° N 11:45:16 25° NE
Cosmos 2016 Rocket 4.0 11:37:55 10° S 11:44:03 56° E 11:50:12 10° NNE
Cosmos 1939 Rocket 4.1 11:44:18 10° S 11:48:00 40° WSW 11:51:38 10° NW
Cosmos 1802 Rocket 4.0 11:44:13 10° S 11:50:43 76° E 11:57:11 10° NNE
Cosmos 1933 3.5 11:47:12 10° S 11:51:18 76° W 11:55:21 10° N
TIMED 4.4 11:47:22 10° N 11:51:43 68° ENE 11:53:33 34° SSE
Cosmos 2233 Rocket 4.4 11:46:52 10° S 11:52:43 38° ESE 11:58:32 10° NE
USA 305 4.2 11:49:14 10° SSW 11:52:29 25° SSE 11:52:29 25° SSE
Meteor PRIRODA 4.2 11:49:19 10° S 11:52:59 59° WSW 11:56:37 10° NNW
CZ-2C R/B 3.0 11:53:05 10° NNW 11:55:22 16° NNE 11:55:24 16° NNE
SAR-Lupe-3 4.5 11:54:02 33° SSE 11:55:36 87° ENE 11:59:14 10° NNW
